H1 CPF 2 NER 2024 9 15 9 259 01 glonass116 H2 0907001 9116 36111 2024 9 15 0 0 0 2024 9 18 23 45 0 900 1 1 0 0 0 1 H9 10 0 60568 0.00000 0 499086.826 -24643587.135 6576279.833 10 0 60568 900.00000 0 425846.389 -25274909.840 3441675.402 10 0 60568 1800.00000 0 289234.655 -25509725.852 240234.079 10 0 60568 2700.00000 0 143982.690 -25339788.236 -2965874.851 10 0 60568 3600.00000 0 45158.689 -24770196.434 -6114401.871 10 0 60568 4500.00000 0 45593.445 -23819191.235 -9144226.192 10 0 60568 5400.00000 0 193401.965 -22517418.406 -11996541.800 10 0 60568 6300.00000 0 529706.471 -20906692.089 -14615997.438 10 0 60568 7200.00000 0 1086657.456 -19038309.919 -16951768.370 10 0 60568 8100.00000 0 1885836.793 -16970990.501 -18958539.336 10 0 60568 9000.00000 0 2937110.764 -14768519.411 -20597379.958 10 0 60568 9900.00000 0 4237981.946 -12497201.848 -21836496.124 10 0 60568 10800.00000 0 5773468.000 -10223227.829 -22651843.314 10 0 60568 11700.00000 0 7516513.457 -8010059.146 -23027590.559 10 0 60568 12600.00000 0 9428918.357 -5915946.250 -22956426.464 10 0 60568 13500.00000 0 11462746.177 -3991677.551 -22439701.683 10 0 60568 14400.00000 0 13562153.533 -2278653.927 -21487405.117 10 0 60568 15300.00000 0 15665566.523 -807367.695 -20117974.124 10 0 60568 16200.00000 0 17708114.072 403651.498 -18357942.016 10 0 60568 17100.00000 0 19624217.716 1348380.763 -16241429.021 10 0 60568 18000.00000 0 21350230.399 2033316.090 -13809485.933 10 0 60568 18900.00000 0 22827014.494 2476952.746 -11109302.419 10 0 60568 19800.00000 0 24002351.381 2708756.465 -8193294.708 10 0 60568 20700.00000 0 24833081.568 2767669.284 -5118089.940 10 0 60568 21600.00000 0 25286885.319 2700213.680 -1943426.642 10 0 60568 22500.00000 0 25343628.596 2558275.637 1269007.302 10 0 60568 23400.00000 0 24996217.219 2396661.063 4456776.293 10 0 60568 24300.00000 0 24250922.807 2270529.728 7557914.461 10 0 60568 25200.00000 0 23127166.290 2232816.147 10512134.675 10 0 60568 26100.00000 0 21656767.750 2331747.547 13262004.914 10 0 60568 27000.00000 0 19882693.824 2608564.874 15754068.575 10 0 60568 27900.00000 0 17857355.151 3095544.208 17939886.495 10 0 60568 28800.00000 0 15640525.220 3814403.142 19776980.117 10 0 60568 29700.00000 0 13296967.821 4775160.299 21229657.410 10 0 60568 30600.00000 0 10893872.308 5975496.975 22269705.649 10 0 60568 31500.00000 0 8498203.776 7400648.615 22876937.828 10 0 60568 32400.00000 0 6174078.486 9023831.529 23039582.487 10 0 60568 33300.00000 0 3980273.590 10807187.759 22754509.772 10 0 60568 34200.00000 0 1967974.311 12703209.216 22027289.673 10 0 60568 35100.00000 0 178851.665 14656582.201 20872081.575 10 0 60568 36000.00000 0 -1356450.222 16606375.735 19311357.369 10 0 60568 36900.00000 0 -2619355.254 18488482.712 17375463.522 10 0 60568 37800.00000 0 -3603882.837 20238212.196 15102030.508 10 0 60568 38700.00000 0 -4316641.020 21792924.740 12535240.885 10 0 60568 39600.00000 0 -4776287.031 23094600.611 9724970.113 10 0 60568 40500.00000 0 -5012479.268 24092233.480 6725816.691 10 0 60568 41400.00000 0 -5064366.124 24743949.291 3596040.404 10 0 60568 42300.00000 0 -4978676.539 25018761.409 396429.443 10 0 60568 43200.00000 0 -4807493.879 24897888.397 -2810881.400 10 0 60568 44100.00000 0 -4605808.084 24375579.037 -5963618.269 10 0 60568 45000.00000 0 -4428950.274 23459409.955 -9000577.726 10 0 60568 45900.00000 0 -4330018.893 22170043.345 -11862814.447 10 0 60568 46800.00000 0 -4357406.674 20540454.890 -14494783.967 10 0 60568 47700.00000 0 -4552533.301 18614664.206 -16845418.245 10 0 60568 48600.00000 0 -4947879.855 16446020.799 -18869113.365 10 0 60568 49500.00000 0 -5565408.312 14095116.951 -20526610.593 10 0 60568 50400.00000 0 -6415433.068 11627414.356 -21785754.118 10 0 60568 51300.00000 0 -7495992.522 9110682.941 -22622111.378 10 0 60568 52200.00000 0 -8792747.804 6612357.881 -23019444.483 10 0 60568 53100.00000 0 -10279413.754 4196924.045 -22970024.050 10 0 60568 54000.00000 0 -11918705.086 1923435.722 -22474779.661 10 0 60568 54900.00000 0 -13663759.300 -156726.234 -21543284.119 10 0 60568 55800.00000 0 -15459977.918 -2001767.524 -20193571.630 10 0 60568 56700.00000 0 -17247210.219 -3580985.199 -18451793.028 10 0 60568 57600.00000 0 -18962189.128 -4875802.379 -16351714.136 10 0 60568 58500.00000 0 -20541118.145 -5880290.614 -13934066.286 10 0 60568 59400.00000 0 -21922301.553 -6601158.887 -11245760.886 10 0 60568 60300.00000 0 -23048707.932 -7057210.495 -8338982.596 10 0 60568 61200.00000 0 -23870359.412 -7278291.353 -5270178.271 10 0 60568 62100.00000 0 -24346446.004 -7303774.652 -2098961.064 10 0 60568 63000.00000 0 -24447075.637 -7180646.504 1113049.054 10 0 60568 63900.00000 0 -24154585.636 -6961274.082 4303425.524 10 0 60568 64800.00000 0 -23464359.675 -6700951.429 7410152.389 10 0 60568 65700.00000 0 -22385115.142 -6455327.517 10372834.218 10 0 60568 66600.00000 0 -20938648.117 -6277826.299 13133874.564 10 0 60568 67500.00000 0 -19159046.142 -6217168.726 15639599.468 10 0 60568 68400.00000 0 -17091401.378 -6315102.434 17841303.738 10 0 60568 69300.00000 0 -14790077.795 -6604435.839 19696199.329 10 0 60568 70200.00000 0 -12316604.729 -7107460.409 21168247.362 10 0 60568 71100.00000 0 -9737284.664 -7834828.379 22228857.713 10 0 60568 72000.00000 0 -7120614.913 -8784933.814 22857442.851 10 0 60568 72900.00000 0 -4534630.451 -9943823.710 23041815.528 10 0 60568 73800.00000 0 -2044278.117 -11285643.432 22778422.989 10 0 60568 74700.00000 0 291068.998 -12773598.374 22072413.482 10 0 60568 75600.00000 0 2419854.307 -14361392.022 20937534.041 10 0 60568 76500.00000 0 4300245.225 -15995080.651 19395861.622 10 0 60568 77400.00000 0 5901626.987 -17615267.336 17477372.833 10 0 60568 78300.00000 0 7205621.816 -19159543.678 15219360.529 10 0 60568 79200.00000 0 8206592.205 -20565077.166 12665708.399 10 0 60568 80100.00000 0 8911608.712 -21771235.795 9866037.558 10 0 60568 81000.00000 0 9339885.064 -22722139.865 6874741.569 10 0 60568 81900.00000 0 9521705.718 -23369033.792 3749928.624 10 0 60568 82800.00000 0 9496892.299 -23672378.161 552291.574 10 0 60568 83700.00000 0 9312874.760 -23603573.931 -2656072.070 10 0 60568 84600.00000 0 9022449.669 -23146246.126 -5812867.007 10 0 60568 85500.00000 0 8681321.137 -22297032.813 -8856810.096 10 0 60569 0.00000 0 8345529.031 -21065846.113 -11728819.417 10 0 60569 900.00000 0 8068873.437 -19475593.288 -14373160.728 10 0 60569 1800.00000 0 7900445.004 -17561371.032 -16738525.227 10 0 60569 2700.00000 0 7882365.080 -15369164.167 -18779022.996 10 0 60569 3600.00000 0 8047831.587 -12954104.286 -20455069.340 10 0 60569 4500.00000 0 8419553.008 -10378359.934 -21734148.839 10 0 60569 5400.00000 0 9008636.645 -7708745.754 -22591442.610 10 0 60569 6300.00000 0 9813978.257 -5014149.330 -23010307.167 10 0 60569 7200.00000 0 10822179.199 -2362881.930 -22982596.044 10 0 60569 8100.00000 0 12007995.222 179937.750 -22508818.278 10 0 60569 9000.00000 0 13335298.927 2554859.168 -21598130.733 10 0 60569 9900.00000 0 14758516.473 4710333.015 -20268164.275 10 0 60569 10800.00000 0 16224479.295 6604609.953 -18544686.754 10 0 60569 11700.00000 0 17674614.179 8207227.022 -16461108.744 10 0 60569 12600.00000 0 19047380.645 9500020.611 -14057840.930 10 0 60569 13500.00000 0 20280853.994 10477624.585 -11381514.907 10 0 60569 14400.00000 0 21315345.883 11147433.509 -8484081.823 10 0 60569 15300.00000 0 22095952.344 11529033.240 -5421805.944 10 0 60569 16200.00000 0 22574921.817 11653123.532 -2254172.406 10 0 60569 17100.00000 0 22713743.025 11559978.733 957269.661 10 0 60569 18000.00000 0 22484864.024 11297512.214 4150105.843 10 0 60569 18900.00000 0 21872969.182 10919027.009 7262273.288 10 0 60569 19800.00000 0 20875759.360 10480748.515 10233271.465 10 0 60569 20700.00000 0 19504201.548 10039244.382 13005342.610 10 0 60569 21600.00000 0 17782236.610 9648841.490 15524598.377 10 0 60569 22500.00000 0 15745956.648 9359149.970 17742070.309 10 0 60569 23400.00000 0 13442285.889 9212799.576 19614663.414 10 0 60569 24300.00000 0 10927219.821 9243484.595 21105994.216 10 0 60569 25200.00000 0 8263695.750 9474400.267 22187097.138 10 0 60569 26100.00000 0 5519183.324 9917137.052 22836985.701 10 0 60569 27000.00000 0 2763095.038 10571079.631 23043058.033 10 0 60569 27900.00000 0 64124.077 11423336.239 22801339.174 10 0 60569 28800.00000 0 -2512380.264 12449201.596 22116555.819 10 0 60569 29700.00000 0 -4906891.142 13613134.242 21002042.298 10 0 60569 30600.00000 0 -7067934.453 14870207.513 19479479.744 10 0 60569 31500.00000 0 -8953979.004 16167973.491 17578473.523 10 0 60569 32400.00000 0 -10534908.949 17448661.857 15335977.037 10 0 60569 33300.00000 0 -11793018.357 18651621.464 12795572.930 10 0 60569 34200.00000 0 -12723487.646 19715902.114 10006625.513 10 0 60569 35100.00000 0 -13334323.355 20582867.976 7023320.772 10 0 60569 36000.00000 0 -13645765.166 21198732.648 3903612.557 10 0 60569 36900.00000 0 -13689186.419 21516908.961 708095.567 10 0 60569 37800.00000 0 -13505535.651 21500074.377 -2501172.804 10 0 60569 38700.00000 0 -13143385.957 21121864.704 -5661878.621 10 0 60569 39600.00000 0 -12656675.412 20368124.469 -8712661.782 10 0 60569 40500.00000 0 -12102234.689 19237660.979 -11594306.893 10 0 60569 41400.00000 0 -11537206.822 17742469.891 -14250891.360 10 0 60569 42300.00000 0 -11016468.422 15907422.380 -16630868.390 10 0 60569 43200.00000 0 -10590161.340 13769426.423 -18688064.049 10 0 60569 44100.00000 0 -10301438.932 11376096.687 -20382569.414 10 0 60569 45000.00000 0 -10184521.847 8783987.875 -21681510.913 10 0 60569 45900.00000 0 -10263145.147 6056464.383 -22559684.531 10 0 60569 46800.00000 0 -10549462.060 3261294.079 -23000042.100 10 0 60569 47700.00000 0 -11043450.564 468065.296 -22994020.714 10 0 60569 48600.00000 0 -11732847.948 -2254466.668 -22541709.205 10 0 60569 49500.00000 0 -12593616.563 -4840994.471 -21651848.527 10 0 60569 50400.00000 0 -13590921.755 -7232127.456 -20341665.910 10 0 60569 51300.00000 0 -14680581.666 -9376612.739 -18636545.594 10 0 60569 52200.00000 0 -15810928.748 -11233217.207 -16569541.975 10 0 60569 53100.00000 0 -16925005.514 -12772192.959 -14180743.886 10 0 60569 54000.00000 0 -17963002.796 -13976265.860 -11516501.662 10 0 60569 54900.00000 0 -18864838.329 -14841106.626 -8628531.300 10 0 60569 55800.00000 0 -19572767.203 -15375265.392 -5572912.663 10 0 60569 56700.00000 0 -20033914.030 -15599573.134 -2409000.888 10 0 60569 57600.00000 0 -20202619.629 -15546035.783 801727.872 10 0 60569 58500.00000 0 -20042502.549 -15256268.247 3996873.671 10 0 60569 59400.00000 0 -19528147.582 -14779535.098 7114329.271 10 0 60569 60300.00000 0 -18646349.059 -14170481.353 10093491.707 10 0 60569 61200.00000 0 -17396855.454 -13486649.949 12876444.705 10 0 60569 62100.00000 0 -15792582.893 -12785891.527 15409088.385 10 0 60569 63000.00000 0 -13859287.587 -12123776.618 17642193.862 10 0 60569 63900.00000 0 -11634710.075 -11551120.098 19532361.895 10 0 60569 64800.00000 0 -9167226.319 -11111722.860 21042866.899 10 0 60569 65700.00000 0 -6514061.406 -10840426.265 22144370.022 10 0 60569 66600.00000 0 -3739139.845 -10761561.567 22815487.671 10 0 60569 67500.00000 0 -910661.546 -10887859.698 23043204.784 10 0 60569 68400.00000 0 1901496.193 -11219867.269 22823125.236 10 0 60569 69300.00000 0 4628443.151 -11745893.362 22159554.812 10 0 60569 70200.00000 0 7204896.983 -12442489.242 21065415.404 10 0 60569 71100.00000 0 9571652.174 -13275440.808 19561992.213 10 0 60569 72000.00000 0 11677795.246 -14201232.033 17678518.877 10 0 60569 72900.00000 0 13482575.008 -15168917.797 15451608.485 10 0 60569 73800.00000 0 14956850.958 -16122327.349 12924541.368 10 0 60569 74700.00000 0 16084060.518 -17002505.549 10146423.356 10 0 60569 75600.00000 0 16860665.908 -17750289.018 7171230.782 10 0 60569 76500.00000 0 17296063.211 -18308908.466 4056760.694 10 0 60569 77400.00000 0 17411958.690 -18626507.288 863506.865 10 0 60569 78300.00000 0 17241239.816 -18658469.902 -2346516.437 10 0 60569 79200.00000 0 16826389.637 -18369461.322 -5510979.785 10 0 60569 80100.00000 0 16217512.294 -17735091.536 -8568449.322 10 0 60569 81000.00000 0 15470053.725 -16743134.092 -11459579.091 10 0 60569 81900.00000 0 14642314.323 -15394247.026 -14128261.733 10 0 60569 82800.00000 0 13792858.820 -13702165.243 -16522715.114 10 0 60569 83700.00000 0 12977932.797 -11693355.545 -18596483.994 10 0 60569 84600.00000 0 12248994.635 -9406147.960 -20309337.657 10 0 60569 85500.00000 0 11650466.696 -6889378.859 -21628046.504 10 0 60570 0.00000 0 11217800.093 -4200601.741 -22527023.082 10 0 60570 900.00000 0 10975933.927 -1403937.727 -22988816.060 10 0 60570 1800.00000 0 10938214.010 1432342.269 -23004446.929 10 0 60570 2700.00000 0 11105815.567 4238409.152 -22573584.839 10 0 60570 3600.00000 0 11467694.750 6945530.997 -21704554.964 10 0 60570 4500.00000 0 12001070.918 9488684.380 -20414180.654 10 0 60570 5400.00000 0 12672419.753 11809014.030 -18727461.950 10 0 60570 6300.00000 0 13438935.930 13856039.534 -16677096.139 10 0 60570 7200.00000 0 14250404.282 15589518.020 -14302848.933 10 0 60570 8100.00000 0 15051401.143 16980885.950 -11650787.804 10 0 60570 9000.00000 0 15783733.469 18014220.419 -8772391.652 10 0 60570 9900.00000 0 16389013.016 18686680.261 -5723553.655 10 0 60570 10800.00000 0 16811256.845 19008409.044 -2563496.382 10 0 60570 11700.00000 0 16999404.009 19001904.485 646379.803 10 0 60570 12600.00000 0 16909641.470 18700881.379 3843692.398 10 0 60570 13500.00000 0 16507440.183 18148676.518 6966292.828 10 0 60570 14400.00000 0 15769214.325 17396263.457 9953478.745 10 0 60570 15300.00000 0 14683532.528 16499961.553 12747178.337 10 0 60570 16200.00000 0 13251828.889 15518936.610 15293083.040 10 0 60570 17100.00000 0 11488582.649 14512599.174 17541706.211 10 0 60570 18000.00000 0 9420957.877 13538010.784 19449346.834 10 0 60570 18900.00000 0 7087917.286 12647407.881 20978939.442 10 0 60570 19800.00000 0 4538846.338 11885947.943 22100773.859 10 0 60570 20700.00000 0 1831744.336 11289772.792 22793070.986 10 0 60570 21600.00000 0 -968942.747 10884470.457 23042403.800 10 0 60570 22500.00000 0 -3794758.136 10684000.021 22843955.789 10 0 60570 23400.00000 0 -6575838.072 10690124.332 22201612.101 10 0 60570 24300.00000 0 -9243575.958 10892374.017 21127881.933 10 0 60570 25200.00000 0 -11733236.776 11268543.907 19643653.748 10 0 60570 26100.00000 0 -13986413.746 11785700.635 17777788.120 10 0 60570 27000.00000 0 -15953225.807 12401658.633 15566556.018 10 0 60570 27900.00000 0 -17594165.251 13066862.122 13052933.259 10 0 60570 28800.00000 0 -18881519.360 13726593.498 10285764.711 10 0 60570 29700.00000 0 -19800307.660 14323414.751 7318814.368 10 0 60570 30600.00000 0 -20348696.646 14799738.631 4209719.712 10 0 60570 31500.00000 0 -20537875.660 15100420.739 1018870.777 10 0 60570 32400.00000 0 -20391400.243 15175262.705 -2191764.085 10 0 60570 33300.00000 0 -19944031.582 14981320.398 -5359842.718 10 0 60570 34200.00000 0 -19240121.861 14484919.227 -8423860.194 10 0 60570 35100.00000 0 -18331614.327 13663291.007 -11324342.603 10 0 60570 36000.00000 0 -17275742.924 12505762.798 -14005000.282 10 0 60570 36900.00000 0 -16132528.858 11014447.001 -16413818.035 10 0 60570 37800.00000 0 -14962179.675 9204402.948 -18504061.353 10 0 60570 38700.00000 0 -13822500.308 7103262.314 -20235179.483 10 0 60570 39600.00000 0 -12766424.715 4750333.065 -21573588.235 10 0 60570 40500.00000 0 -11839771.488 2195218.323 -22493317.943 10 0 60570 41400.00000 0 -11079317.129 -503993.462 -22976514.543 10 0 60570 42300.00000 0 -10511267.409 -3282892.849 -23013784.542 10 0 60570 43200.00000 0 -10150190.374 -6073179.473 -22604377.482 10 0 60570 44100.00000 0 -9998455.431 -8805258.151 -21756202.497 10 0 60570 45000.00000 0 -10046201.730 -11410894.263 -20485678.474 10 0 60570 45900.00000 0 -10271837.092 -13825819.208 -18817420.379 10 0 60570 46800.00000 0 -10643046.529 -15992178.554 -16783767.239 10 0 60570 47700.00000 0 -11118268.082 -17860721.754 -14424160.295 10 0 60570 48600.00000 0 -11648574.025 -19392642.842 -11784382.628 10 0 60570 49500.00000 0 -12179878.293 -20560995.768 -8915674.400 10 0 60570 50400.00000 0 -12655377.036 -21351625.580 -5873740.388 10 0 60570 51300.00000 0 -13018119.113 -21763576.769 -2717668.804 10 0 60570 52200.00000 0 -13213597.550 -21808961.990 491217.642 10 0 60570 53100.00000 0 -13192251.816 -21512296.978 3690555.848 10 0 60570 54000.00000 0 -12911774.325 -20909330.065 6818157.986 10 0 60570 54900.00000 0 -12339122.659 -20045416.044 9813224.547 10 0 60570 55800.00000 0 -11452151.401 -18973503.428 12617530.520 10 0 60570 56700.00000 0 -10240793.467 -17751820.471 15176561.092 10 0 60570 57600.00000 0 -8707739.936 -16441358.014 17440574.328 10 0 60570 58500.00000 0 -6868588.528 -15103255.629 19365569.850 10 0 60570 59400.00000 0 -4751453.349 -13796201.476 20914144.602 10 0 60570 60300.00000 0 -2396051.161 -12573955.399 22056219.179 10 0 60570 61200.00000 0 147698.587 -11483099.430 22769620.808 10 0 60570 62100.00000 0 2821502.365 -10561109.937 23040512.052 10 0 60570 63000.00000 0 5560874.416 -9834832.027 22863657.223 10 0 60570 63900.00000 0 8297581.698 -9319419.672 22242521.728 10 0 60570 64800.00000 0 10962250.854 -9017785.402 21189202.610 10 0 60570 65700.00000 0 13487029.460 -8920581.955 19724191.802 10 0 60570 66600.00000 0 15808191.452 -9006715.929 17875976.670 10 0 60570 67500.00000 0 17868578.934 -9244371.123 15680485.540 10 0 60570 68400.00000 0 19619779.356 -9592497.858 13180388.793 10 0 60570 69300.00000 0 21023947.921 -10002704.930 10424268.979 10 0 60570 70200.00000 0 22055199.896 -10421473.890 7465675.965 10 0 60570 71100.00000 0 22700515.395 -10792601.695 4362085.425 10 0 60570 72000.00000 0 22960119.582 -11059768.102 1173781.039 10 0 60570 72900.00000 0 22847323.237 -11169118.868 -2037317.700 10 0 60570 73800.00000 0 22387831.261 -11071755.098 -5208859.066 10 0 60570 74700.00000 0 21618549.009 -10726023.083 -8279270.330 10 0 60570 75600.00000 0 20585937.426 -10099507.365 -11188952.900 10 0 60570 76500.00000 0 19343986.743 -9170642.346 -13881437.993 10 0 60570 77400.00000 0 17951894.450 -7929873.835 -16304480.383 10 0 60570 78300.00000 0 16471545.347 -6380320.900 -18411069.121 10 0 60570 79200.00000 0 14964899.571 -4537909.331 -20160335.999 10 0 60570 80100.00000 0 13491398.040 -2430970.108 -21518344.532 10 0 60570 81000.00000 0 12105493.746 -99318.577 -22458744.740 10 0 60570 81900.00000 0 10854411.770 2407148.458 -22963281.593 10 0 60570 82800.00000 0 9776231.242 5030280.502 -23022147.695 10 0 60570 83700.00000 0 8898368.822 7705851.215 -22634173.744 10 0 60570 84600.00000 0 8236526.541 10365997.086 -21806853.151 10 0 60570 85500.00000 0 7794147.478 12941816.714 -20556200.224 10 0 60571 0.00000 0 7562401.587 15366023.571 -18906444.462 10 0 60571 900.00000 0 7520701.866 17575544.123 -16889565.381 10 0 60571 1800.00000 0 7637729.154 19513950.691 -14544678.497 10 0 60571 2700.00000 0 7872921.925 21133632.537 -11917280.742 10 0 60571 3600.00000 0 8178368.545 22397611.675 -9058371.409 10 0 60571 4500.00000 0 8501021.866 23280929.038 -6023464.400 10 0 60571 5400.00000 0 8785142.421 23771542.876 -2871510.808 10 0 60571 6300.00000 0 8974866.574 23870701.816 336247.291 10 0 60571 7200.00000 0 9016790.411 23592777.001 3537469.314 10 0 60571 8100.00000 0 8862459.314 22964560.542 6669931.346 10 0 60571 9000.00000 0 8470656.960 22024060.025 9672739.840 10 0 60571 9900.00000 0 7809395.860 20818840.130 12487519.601 10 0 60571 10800.00000 0 6857524.208 19403981.576 15059552.409 10 0 60571 11700.00000 0 5605879.934 17839743.668 17338843.677 10 0 60571 12600.00000 0 4057942.152 16189029.168 19281096.066 10 0 60571 13500.00000 0 2229951.348 14514758.351 20848571.072 10 0 60571 14400.00000 0 150492.086 12877262.681 22010821.898 10 0 60571 15300.00000 0 -2140445.348 11331807.478 22745283.613 10 0 60571 16200.00000 0 -4592886.139 9926347.214 23037709.474 10 0 60571 17100.00000 0 -7148716.554 8699607.084 22882445.309 10 0 60571 18000.00000 0 -9743877.818 7679570.572 22282536.967 10 0 60571 18900.00000 0 -12310817.564 6882435.593 21249669.012 10 0 60571 19800.00000 0 -14781097.513 6312082.008 19803935.960 10 0 60571 20700.00000 0 -17088049.315 5960071.861 17973450.556 10 0 60571 21600.00000 0 -19169368.545 5806181.300 15793796.573 10 0 60571 22500.00000 0 -20969539.253 5819440.848 13307336.624 10 0 60571 23400.00000 0 -22441988.411 5959639.297 10562388.283 10 0 60571 24300.00000 0 -23550880.781 6179227.040 7612284.416 10 0 60571 25200.00000 0 -24272479.736 6425537.752 4514335.903 10 0 60571 26100.00000 0 -24596017.556 6643233.930 1328717.054 10 0 60571 27000.00000 0 -24524039.382 6776872.324 -1882704.482 10 0 60571 27900.00000 0 -24072207.014 6773480.215 -5057570.314 10 0 60571 28800.00000 0 -23268571.416 6585033.068 -8134242.726 10 0 60571 29700.00000 0 -22152345.119 6170728.292 -11053001.131 10 0 60571 30600.00000 0 -20772226.574 5498958.492 -13757200.171 10 0 60571 31500.00000 0 -19184347.268 4548900.367 -16194366.922 10 0 60571 32400.00000 0 -17449927.981 3311651.573 -18317216.063 10 0 60571 33300.00000 0 -15632742.504 1790866.969 -20084563.660 10 0 60571 34200.00000 0 -13796494.943 2866.570 -21462122.264 10 0 60571 35100.00000 0 -12002219.997 -2023790.351 -22423162.479 10 0 60571 36000.00000 0 -10305814.373 -4249248.431 -22949028.729 10 0 60571 36900.00000 0 -8755801.818 -6623778.516 -23029499.688 10 0 60571 37800.00000 0 -7391424.352 -9089621.147 -22662986.737 10 0 60571 38700.00000 0 -6241138.583 -11583175.808 -21856566.690 10 0 60571 39600.00000 0 -5321579.165 -14037446.040 -20625848.036 10 0 60571 40500.00000 0 -4637031.985 -16384639.835 -18994672.948 10 0 60571 41400.00000 0 -4179438.452 -18558818.025 -16994660.245 10 0 60571 42300.00000 0 -3928930.192 -20498481.081 -14664597.525 10 0 60571 43200.00000 0 -3854871.198 -22148986.984 -12049693.544 10 0 60571 44100.00000 0 -3917363.213 -23464699.497 -9200704.672 10 0 60571 45000.00000 0 -4069150.528 -24410777.125 -6172951.917 10 0 60571 45900.00000 0 -4257843.417 -24964527.779 -3025247.296 10 0 60571 46800.00000 0 -4428365.772 -25116272.230 181249.635 10 0 60571 47700.00000 0 -4525522.812 -24869679.939 3384222.644 10 0 60571 48600.00000 0 -4496579.484 -24241563.019 6521413.521 10 0 60571 49500.00000 0 -4293739.526 -23261136.980 9531836.474 10 0 60571 50400.00000 0 -3876419.310 -21968779.383 12356967.926 10 0 60571 51300.00000 0 -3213219.213 -20414338.801 14941888.060 10 0 60571 52200.00000 0 -2283508.071 -18655065.365 17236351.416 10 0 60571 53100.00000 0 -1078552.708 -16753250.123 19195765.425 10 0 60571 54000.00000 0 397856.225 -14773672.499 20782057.742 10 0 60571 54900.00000 0 2129309.562 -12780962.995 21964415.641 10 0 60571 55800.00000 0 4087221.152 -10836991.615 22719883.289 10 0 60571 56700.00000 0 6231788.145 -8998391.088 23033805.679 10 0 60571 57600.00000 0 8513430.827 -7314318.061 22900110.954 10 0 60571 58500.00000 0 10874652.723 -5824545.211 22321425.970 10 0 60571 59400.00000 0 13252244.109 -4557963.214 21309023.119 10 0 60571 60300.00000 0 15579737.738 -3531554.170 19882599.582 10 0 60571 61200.00000 0 17790014.946 -2749878.334 18069893.293 10 0 60571 62100.00000 0 19817953.957 -2205094.426 15906143.017 10 0 60571 63000.00000 0 21603010.331 -1877511.433 13433402.844 10 0 60571 63900.00000 0 23091622.120 -1736647.499 10699724.289 10 0 60571 64800.00000 0 24239339.565 -1742750.235 7758221.766 10 0 60571 65700.00000 0 25012590.530 -1848713.310 4666039.544 10 0 60571 66600.00000 0 25390008.025 -2002307.524 1483240.377 10 0 60571 67500.00000 0 25363264.540 -2148631.313 -1728362.426 10 0 60571 68400.00000 0 24937378.543 -2232676.344 -4906406.559 10 0 60571 69300.00000 0 24130480.654 -2201899.113 -7989192.217 10 0 60571 70200.00000 0 22973049.735 -2008689.225 -10916879.778 10 0 60571 71100.00000 0 21506651.254 -1612629.490 -13632650.229 10 0 60571 72000.00000 0 19782231.165 -982451.882 -16083805.772 10 0 60571 72900.00000 0 17858036.956 -97606.260 -18222789.389 10 0 60571 73800.00000 0 15797252.900 1050624.861 -20008103.915 10 0 60571 74700.00000 0 13665448.294 2458513.157 -21405113.227 10 0 60571 75600.00000 0 11527944.915 4109799.582 -22386710.560 10 0 60571 76500.00000 0 9447213.031 5976142.343 -22933841.569 10 0 60571 77400.00000 0 7480403.904 8018080.181 -23035872.437 10 0 60571 78300.00000 0 5677120.809 10186472.009 -22690796.278 10 0 60571 79200.00000 0 4077520.580 12424354.171 -21905273.917 10 0 60571 80100.00000 0 2710823.943 14669139.130 -20694508.170 10 0 60571 81000.00000 0 1594295.863 16855065.141 -19081953.683 10 0 60571 81900.00000 0 732737.667 18915795.814 -17098867.429 10 0 60571 82800.00000 0 118511.411 20787061.889 -14783707.876 10 0 60571 83700.00000 0 -267905.233 22409235.492 -12181393.807 10 0 60571 84600.00000 0 -456857.486 23729729.569 -9342436.459 10 0 60571 85500.00000 0 -487990.612 24705122.087 -6321961.368 99